User: anonymous   Login
Location: Bouchavesnes-Bergen
(49.9859°N, 2.9203°E)
Time: 19:43:37
(UTC+00:00)
Language:

Cosmos 192 - Orbit

View from above orbital plane
View from above orbital plane
View from above satellite
View from above satellite

Ground track
Ground track

The orbit data is extracted from the following two-line orbital elements,

1 03047U 67116A   21136.60803946  .00000021  00000-0  11369-4 0  9991
2 03047  74.0113 305.1896 0008895 214.4271 145.6317 14.55678184828188
Epoch (UTC): 16 May 2021 14:35:34
Eccentricity: 0.0008895
inclination: 74.0113°
perigee height: 701 km
apogee height: 713 km
right ascension of ascending node: 305.1896°
argument of perigee: 214.4271°
revolutions per day: 14.55678184
mean anomaly at epoch: 145.6317°
orbit number at epoch: 82818

The dashed part of the orbit path shows where the satellite is in the earth's shadow,  

DLR